Location: Albany
(35.0170°S, 117.8920°E)
Time: 19:59:02
(UTC+08:00)

A-11 Canister half - Pass Details

Date: 27 January 2021
Orbit: 1525 x 1684 km, 47.3° (Epoch: 03 March)

Event Time Altitude Azimuth Distance (km) Brightness Sun altitude
Rises 06:50:43 0° 239° (WSW) 4,905 11.2 16.4°
Reaches altitude 10° 06:54:02 10° 234° (SW) 3,897 10.8 17.0°
Maximum altitude 07:03:47 56° 157° (SSE) 1,865 10.1 19.0°
Drops below altitude 10° 07:13:08 10° 79° (E) 3,758 12.6 20.9°
Sets 07:16:16 0° 75° (ENE) 4,720 12.7 21.5°
